ANS530 SAEZ-SANE

Flight info

Callsign ANS530
Flight time 1h 18m
Altitude 34000
Route BIVAM1E BIVAM UW8 ERE UT680 EDVIK
Aircraft B737/M-SDE1FGIRWYZ/SB1

Departure

Time 2026-04-28 23:11
Airport Ezeiza International Airport - Ministro Pistarini (SAEZ)

Arrival

Time 2026-04-29 00:29
Airport Vicecomodoro Angel D. La Paz Aragonés Airport (SANE)
Time Latitude Longitude Altitude Speed Heading
2026-04-28 22:39 -34.81481 -58.53514 74 ft 0 kts 106°
2026-04-28 22:59 -34.81476 -58.53533 61 ft 4 kts 109°
2026-04-28 23:00 -34.81466 -58.53564 70 ft 4 kts 116°
2026-04-28 23:00 -34.81451 -58.53593 72 ft 4 kts 133°
2026-04-28 23:00 -34.81432 -58.53610 70 ft 4 kts 181°
2026-04-28 23:00 -34.81425 -58.53610 69 ft 1 kts 194°
2026-04-28 23:03 -34.81430 -58.53611 74 ft 2 kts 194°
2026-04-28 23:03 -34.81446 -58.53616 71 ft 3 kts 195°
2026-04-28 23:03 -34.81468 -58.53628 74 ft 4 kts 205°
2026-04-28 23:04 -34.81495 -58.53644 85 ft 5 kts 205°
2026-04-28 23:04 -34.81556 -58.53687 74 ft 6 kts 220°
2026-04-28 23:04 -34.81593 -58.53728 67 ft 8 kts 221°
2026-04-28 23:05 -34.81626 -58.53756 74 ft 9 kts 211°
2026-04-28 23:05 -34.81690 -58.53754 70 ft 10 kts 147°
2026-04-28 23:05 -34.81761 -58.53713 71 ft 12 kts 154°
2026-04-28 23:05 -34.81841 -58.53667 71 ft 13 kts 155°
2026-04-28 23:06 -34.81931 -58.53614 70 ft 15 kts 154°
2026-04-28 23:06 -34.82030 -58.53557 75 ft 16 kts 156°
2026-04-28 23:06 -34.82131 -58.53502 73 ft 15 kts 155°
2026-04-28 23:06 -34.82234 -58.53444 83 ft 15 kts 155°
2026-04-28 23:07 -34.82325 -58.53394 80 ft 17 kts 155°
2026-04-28 23:07 -34.82444 -58.53326 76 ft 20 kts 156°
2026-04-28 23:07 -34.82568 -58.53258 69 ft 18 kts 155°
2026-04-28 23:07 -34.82692 -58.53189 71 ft 21 kts 156°
2026-04-28 23:08 -34.82834 -58.53109 71 ft 23 kts 155°
2026-04-28 23:08 -34.82993 -58.53022 70 ft 24 kts 156°
2026-04-28 23:08 -34.83150 -58.52932 69 ft 26 kts 155°
2026-04-28 23:08 -34.83259 -58.52869 73 ft 27 kts 154°
2026-04-28 23:09 -34.83473 -58.52750 71 ft 24 kts 158°
2026-04-28 23:09 -34.83545 -58.52688 72 ft 16 kts 100°
2026-04-28 23:09 -34.83530 -58.52605 71 ft 4 kts 72°
2026-04-28 23:09 -34.83519 -58.52568 73 ft 6 kts 70°
2026-04-28 23:10 -34.83505 -58.52531 85 ft 8 kts 54°
2026-04-28 23:10 -34.83435 -58.52505 84 ft 22 kts
2026-04-28 23:10 -34.83006 -58.52639 80 ft 103 kts 344°
2026-04-28 23:10 -34.82113 -58.52961 204 ft 154 kts 343°
2026-04-28 23:11 -34.81110 -58.53298 1048 ft 143 kts 344°
2026-04-28 23:11 -34.80169 -58.53587 1991 ft 141 kts 339°
2026-04-28 23:11 -34.79108 -58.53944 2470 ft 172 kts 339°
2026-04-28 23:11 -34.77821 -58.54380 2795 ft 207 kts 340°
2026-04-28 23:12 -34.76464 -58.55146 3255 ft 222 kts 316°
2026-04-28 23:12 -34.75629 -58.56778 3704 ft 241 kts 281°
2026-04-28 23:12 -34.75567 -58.58661 4535 ft 247 kts 267°
2026-04-28 23:12 -34.75656 -58.60779 5702 ft 246 kts 266°
2026-04-28 23:13 -34.75745 -58.62844 6871 ft 245 kts 266°
2026-04-28 23:13 -34.75830 -58.64950 7734 ft 253 kts 266°
2026-04-28 23:13 -34.75894 -58.66720 8512 ft 256 kts 266°
2026-04-28 23:13 -34.75962 -58.68864 9474 ft 259 kts 267°
2026-04-28 23:14 -34.76018 -58.70945 10281 ft 266 kts 270°
2026-04-28 23:14 -34.75508 -58.73161 10582 ft 298 kts 297°
2026-04-28 23:14 -34.74055 -58.75001 10994 ft 326 kts 322°
2026-04-28 23:14 -34.71986 -58.76177 11772 ft 339 kts 338°
2026-04-28 23:15 -34.69721 -58.76860 12638 ft 345 kts 343°
2026-04-28 23:15 -34.67344 -58.77417 13500 ft 350 kts 345°
2026-04-28 23:15 -34.64982 -58.77936 14250 ft 355 kts 345°
2026-04-28 23:15 -34.62528 -58.78482 14941 ft 361 kts 345°
2026-04-28 23:16 -34.59996 -58.79066 15641 ft 368 kts 345°
2026-04-28 23:16 -34.57501 -58.79658 16343 ft 373 kts 345°
2026-04-28 23:16 -34.54936 -58.80281 17043 ft 379 kts 344°
2026-04-28 23:16 -34.52334 -58.80921 17726 ft 385 kts 344°
2026-04-28 23:17 -34.49657 -58.81585 18392 ft 390 kts 345°
2026-04-28 23:17 -34.47074 -58.82227 18992 ft 395 kts 345°
2026-04-28 23:17 -34.44279 -58.82922 19662 ft 399 kts 345°
2026-04-28 23:17 -34.41543 -58.83603 20292 ft 403 kts 345°
2026-04-28 23:18 -34.38783 -58.84284 20911 ft 407 kts 345°
2026-04-28 23:18 -34.35983 -58.84977 21508 ft 412 kts 345°
2026-04-28 23:18 -34.33163 -58.85680 22110 ft 416 kts 345°
2026-04-28 23:18 -34.30370 -58.86621 22697 ft 416 kts 335°
2026-04-28 23:19 -34.27769 -58.88129 23327 ft 416 kts 328°
2026-04-28 23:19 -34.25207 -58.89784 23844 ft 420 kts 327°
2026-04-28 23:19 -34.22623 -58.91479 24304 ft 424 kts 327°
2026-04-28 23:19 -34.20012 -58.93190 24777 ft 429 kts 328°
2026-04-28 23:20 -34.17375 -58.94905 25251 ft 433 kts 328°
2026-04-28 23:20 -34.14695 -58.96633 25714 ft 437 kts 328°
2026-04-28 23:20 -34.11999 -58.98360 26169 ft 441 kts 328°
2026-04-28 23:20 -34.09272 -59.00099 26621 ft 445 kts 328°
2026-04-28 23:21 -34.06482 -59.01873 27064 ft 449 kts 328°
2026-04-28 23:21 -34.03709 -59.03634 27492 ft 452 kts 328°
2026-04-28 23:21 -34.00905 -59.05412 27910 ft 456 kts 329°
2026-04-28 23:21 -33.98085 -59.07199 28332 ft 460 kts 329°
2026-04-28 23:22 -33.95237 -59.09002 28737 ft 463 kts 329°
2026-04-28 23:22 -33.92375 -59.10814 29130 ft 467 kts 329°
2026-04-28 23:22 -33.89483 -59.12643 29517 ft 471 kts 329°
2026-04-28 23:22 -33.86570 -59.14484 29898 ft 474 kts 329°
2026-04-28 23:23 -33.83637 -59.16336 30225 ft 477 kts 329°
2026-04-28 23:23 -33.80681 -59.18202 30529 ft 480 kts 329°
2026-04-28 23:23 -33.77716 -59.20072 30881 ft 482 kts 329°
2026-04-28 23:23 -33.74743 -59.21945 31275 ft 482 kts 329°
2026-04-28 23:24 -33.71770 -59.23816 31662 ft 483 kts 329°
2026-04-28 23:24 -33.68787 -59.25692 32001 ft 485 kts 329°
2026-04-28 23:24 -33.65796 -59.27572 32336 ft 486 kts 329°
2026-04-28 23:24 -33.62801 -59.29454 32690 ft 487 kts 329°
2026-04-28 23:25 -33.59756 -59.31365 33045 ft 488 kts 329°
2026-04-28 23:25 -33.56748 -59.33251 33379 ft 489 kts 329°
2026-04-28 23:25 -33.53732 -59.35141 33712 ft 489 kts 329°
2026-04-28 23:25 -33.50708 -59.37035 33985 ft 491 kts 329°
2026-04-28 23:26 -33.44669 -59.40813 33967 ft 491 kts 329°
2026-04-28 23:26 -33.38628 -59.44582 33962 ft 489 kts 329°
2026-04-28 23:27 -33.32516 -59.48394 33974 ft 488 kts 329°
2026-04-28 23:27 -33.26489 -59.52146 33973 ft 489 kts 329°
2026-04-28 23:28 -33.20453 -59.55897 33975 ft 489 kts 329°
2026-04-28 23:28 -33.15393 -59.59038 33977 ft 489 kts 329°
2026-04-28 23:29 -33.09348 -59.62785 33979 ft 489 kts 330°
2026-04-28 23:29 -33.03303 -59.66525 33984 ft 490 kts 330°
2026-04-28 23:30 -32.97254 -59.70262 33982 ft 490 kts 330°
2026-04-28 23:30 -32.91195 -59.74000 33985 ft 490 kts 330°
2026-04-28 23:31 -32.85131 -59.77735 33989 ft 491 kts 330°
2026-04-28 23:31 -32.79020 -59.81493 33985 ft 491 kts 330°
2026-04-28 23:32 -32.72948 -59.85221 33991 ft 491 kts 330°
2026-04-28 23:32 -32.66826 -59.88975 33989 ft 491 kts 330°
2026-04-28 23:33 -32.60761 -59.92688 33992 ft 491 kts 330°
2026-04-28 23:33 -32.54817 -59.96633 33996 ft 489 kts 327°
2026-04-28 23:34 -32.48988 -60.00803 33996 ft 488 kts 326°
2026-04-28 23:34 -32.43170 -60.04962 33990 ft 488 kts 327°
2026-04-28 23:35 -32.37407 -60.09030 33988 ft 478 kts 328°
2026-04-28 23:35 -32.31686 -60.13044 34006 ft 478 kts 328°
2026-04-28 23:36 -32.25923 -60.17081 34002 ft 478 kts 328°
2026-04-28 23:36 -32.20110 -60.21147 34002 ft 479 kts 328°
2026-04-28 23:37 -32.14379 -60.25152 34002 ft 479 kts 328°
2026-04-28 23:37 -32.08648 -60.29150 34003 ft 478 kts 328°
2026-04-28 23:38 -32.02843 -60.33194 34010 ft 478 kts 328°
2026-04-28 23:38 -31.97122 -60.37174 34013 ft 477 kts 328°
2026-04-28 23:39 -31.91420 -60.41135 34018 ft 475 kts 328°
2026-04-28 23:39 -31.85892 -60.44971 34022 ft 474 kts 328°
2026-04-28 23:40 -31.80212 -60.48909 34023 ft 473 kts 328°
2026-04-28 23:40 -31.74656 -60.53050 34021 ft 471 kts 325°
2026-04-28 23:41 -31.69080 -60.57372 34018 ft 471 kts 325°
2026-04-28 23:41 -31.63594 -60.61592 34019 ft 471 kts 326°
2026-04-28 23:42 -31.58062 -60.65805 34017 ft 471 kts 326°
2026-04-28 23:42 -31.52557 -60.69974 34017 ft 471 kts 326°
2026-04-28 23:43 -31.47054 -60.74141 34023 ft 471 kts 326°
2026-04-28 23:43 -31.41539 -60.78307 34019 ft 472 kts 326°
2026-04-28 23:44 -31.36014 -60.82481 34015 ft 473 kts 326°
2026-04-28 23:44 -31.30473 -60.86657 34014 ft 474 kts 326°
2026-04-28 23:45 -31.24919 -60.90837 34017 ft 475 kts 326°
2026-04-28 23:45 -31.20226 -60.94366 34018 ft 476 kts 326°
2026-04-28 23:46 -31.14552 -60.98619 34019 ft 476 kts 326°
2026-04-28 23:46 -31.08946 -61.02819 34019 ft 477 kts 326°
2026-04-28 23:47 -31.03346 -61.07013 34023 ft 478 kts 326°
2026-04-28 23:47 -30.97740 -61.11198 34017 ft 479 kts 326°
2026-04-28 23:48 -30.92155 -61.15361 34023 ft 480 kts 326°
2026-04-28 23:48 -30.86521 -61.19555 34025 ft 480 kts 326°
2026-04-28 23:49 -30.80843 -61.23777 34030 ft 481 kts 326°
2026-04-28 23:49 -30.75196 -61.27971 34024 ft 481 kts 325°
2026-04-28 23:50 -30.69541 -61.32164 34031 ft 482 kts 325°
2026-04-28 23:50 -30.63886 -61.36351 34030 ft 482 kts 325°
2026-04-28 23:51 -30.58251 -61.40518 34037 ft 483 kts 325°
2026-04-28 23:51 -30.52577 -61.44708 34025 ft 483 kts 325°
2026-04-28 23:52 -30.46899 -61.48895 34031 ft 483 kts 325°
2026-04-28 23:52 -30.41227 -61.53072 34031 ft 484 kts 325°
2026-04-28 23:53 -30.35541 -61.57253 34030 ft 484 kts 325°
2026-04-28 23:53 -30.29852 -61.61431 34035 ft 484 kts 325°
2026-04-28 23:54 -30.24157 -61.65607 34038 ft 485 kts 325°
2026-04-28 23:54 -30.18452 -61.69785 34032 ft 485 kts 325°
2026-04-28 23:55 -30.12734 -61.73966 34036 ft 486 kts 325°
2026-04-28 23:55 -30.07016 -61.78142 34034 ft 486 kts 325°
2026-04-28 23:56 -30.01300 -61.82311 34040 ft 486 kts 325°
2026-04-28 23:56 -29.95581 -61.86477 34031 ft 486 kts 325°
2026-04-28 23:57 -29.89869 -61.90632 34037 ft 485 kts 325°
2026-04-28 23:57 -29.84531 -61.95312 34048 ft 480 kts 313°
2026-04-28 23:58 -29.79719 -62.00644 34037 ft 479 kts 312°
2026-04-28 23:58 -29.74933 -62.05993 34025 ft 480 kts 312°
2026-04-28 23:59 -29.70115 -62.11300 34033 ft 480 kts 313°
2026-04-28 23:59 -29.65268 -62.16590 34033 ft 480 kts 313°
2026-04-29 00:00 -29.60414 -62.21872 34039 ft 481 kts 313°
2026-04-29 00:00 -29.55547 -62.27165 34033 ft 482 kts 313°
2026-04-29 00:01 -29.50670 -62.32462 34041 ft 483 kts 313°
2026-04-29 00:01 -29.45778 -62.37770 34028 ft 484 kts 313°
2026-04-29 00:02 -29.40875 -62.43081 34035 ft 485 kts 313°
2026-04-29 00:02 -29.35957 -62.48401 34030 ft 486 kts 313°
2026-04-29 00:03 -29.30973 -62.53785 34033 ft 486 kts 313°
2026-04-29 00:03 -29.26052 -62.59093 34044 ft 486 kts 313°
2026-04-29 00:04 -29.21094 -62.64434 34041 ft 486 kts 313°
2026-04-29 00:04 -29.16167 -62.69734 34040 ft 486 kts 313°
2026-04-29 00:05 -29.11240 -62.75028 34040 ft 486 kts 313°
2026-04-29 00:05 -29.06305 -62.80323 34037 ft 486 kts 313°
2026-04-29 00:06 -29.01373 -62.85610 34044 ft 486 kts 313°
2026-04-29 00:06 -28.96432 -62.90894 33947 ft 487 kts 313°
2026-04-29 00:07 -28.93940 -62.93557 33227 ft 492 kts 313°
2026-04-29 00:07 -28.91448 -62.96213 32699 ft 487 kts 313°
2026-04-29 00:07 -28.88981 -62.98840 32183 ft 483 kts 313°
2026-04-29 00:07 -28.86531 -63.01447 31674 ft 479 kts 313°
2026-04-29 00:08 -28.84106 -63.04028 31173 ft 475 kts 313°
2026-04-29 00:08 -28.81700 -63.06588 30678 ft 471 kts 313°
2026-04-29 00:08 -28.79309 -63.09131 30163 ft 469 kts 313°
2026-04-29 00:08 -28.76962 -63.11627 29585 ft 465 kts 313°
2026-04-29 00:09 -28.74607 -63.14128 29026 ft 460 kts 313°
2026-04-29 00:09 -28.72274 -63.16606 28480 ft 456 kts 313°
2026-04-29 00:09 -28.69966 -63.19054 27963 ft 450 kts 313°
2026-04-29 00:09 -28.67687 -63.21469 27435 ft 445 kts 313°
2026-04-29 00:10 -28.66187 -63.23060 27095 ft 442 kts 313°
2026-04-29 00:10 -28.63944 -63.25436 26582 ft 438 kts 313°
2026-04-29 00:10 -28.61728 -63.27781 26073 ft 433 kts 313°
2026-04-29 00:10 -28.59530 -63.30107 25561 ft 429 kts 313°
2026-04-29 00:11 -28.57354 -63.32408 25055 ft 425 kts 313°
2026-04-29 00:11 -28.55202 -63.34682 24553 ft 421 kts 313°
2026-04-29 00:11 -28.50940 -63.39183 23485 ft 414 kts 314°
2026-04-29 00:12 -28.48839 -63.41400 22907 ft 409 kts 314°
2026-04-29 00:12 -28.46761 -63.43590 22371 ft 404 kts 314°
2026-04-29 00:12 -28.44712 -63.45749 21854 ft 399 kts 314°
2026-04-29 00:12 -28.42686 -63.47882 21353 ft 394 kts 314°
2026-04-29 00:13 -28.40689 -63.49984 20876 ft 389 kts 314°
2026-04-29 00:13 -28.38710 -63.52066 20377 ft 385 kts 314°
2026-04-29 00:13 -28.36757 -63.54120 19880 ft 381 kts 314°
2026-04-29 00:13 -28.34824 -63.56152 19395 ft 377 kts 314°
2026-04-29 00:14 -28.32906 -63.58168 18911 ft 374 kts 314°
2026-04-29 00:14 -28.31025 -63.60143 18410 ft 371 kts 314°
2026-04-29 00:14 -28.29134 -63.62128 17860 ft 368 kts 314°
2026-04-29 00:14 -28.27257 -63.64096 17357 ft 365 kts 314°
2026-04-29 00:15 -28.25405 -63.66037 16847 ft 361 kts 314°
2026-04-29 00:15 -28.23568 -63.67962 16356 ft 357 kts 314°
2026-04-29 00:15 -28.21753 -63.69863 15874 ft 353 kts 314°
2026-04-29 00:15 -28.19952 -63.71748 15395 ft 350 kts 314°
2026-04-29 00:16 -28.18167 -63.73617 14917 ft 347 kts 314°
2026-04-29 00:16 -28.16402 -63.75463 14444 ft 344 kts 314°
2026-04-29 00:16 -28.14672 -63.77272 13957 ft 342 kts 314°
2026-04-29 00:16 -28.12932 -63.79093 13428 ft 339 kts 314°
2026-04-29 00:17 -28.11205 -63.80896 12911 ft 336 kts 314°
2026-04-29 00:17 -28.09467 -63.82709 12422 ft 333 kts 314°
2026-04-29 00:17 -28.07800 -63.84517 11937 ft 328 kts 307°
2026-04-29 00:17 -28.06572 -63.86618 11470 ft 321 kts 292°
2026-04-29 00:18 -28.05852 -63.88982 11029 ft 315 kts 283°
2026-04-29 00:18 -28.05306 -63.91364 10564 ft 309 kts 282°
2026-04-29 00:18 -28.04808 -63.93682 10353 ft 293 kts 281°
2026-04-29 00:18 -28.04336 -63.95878 10187 ft 278 kts 281°
2026-04-29 00:19 -28.03886 -63.97948 10059 ft 264 kts 281°
2026-04-29 00:19 -28.03449 -63.99944 9713 ft 259 kts 282°
2026-04-29 00:19 -28.03017 -64.01900 9380 ft 253 kts 282°
2026-04-29 00:19 -28.02592 -64.03813 9048 ft 249 kts 282°
2026-04-29 00:20 -28.02167 -64.05714 8738 ft 250 kts 283°
2026-04-29 00:20 -28.01736 -64.07642 8423 ft 257 kts 283°
2026-04-29 00:20 -28.01289 -64.09632 8092 ft 265 kts 284°
2026-04-29 00:20 -28.00832 -64.11659 7720 ft 264 kts 284°
2026-04-29 00:21 -28.00388 -64.13626 7371 ft 259 kts 284°
2026-04-29 00:21 -27.99936 -64.15625 7035 ft 258 kts 285°
2026-04-29 00:21 -27.99491 -64.17593 6703 ft 258 kts 285°
2026-04-29 00:21 -27.99051 -64.19535 6350 ft 259 kts 285°
2026-04-29 00:22 -27.98600 -64.21525 5980 ft 255 kts 286°
2026-04-29 00:22 -27.98171 -64.23418 5659 ft 249 kts 286°
2026-04-29 00:22 -27.97740 -64.25319 5329 ft 243 kts 287°
2026-04-29 00:22 -27.97324 -64.27152 5084 ft 235 kts 287°
2026-04-29 00:23 -27.96924 -64.28912 4996 ft 228 kts 287°
2026-04-29 00:23 -27.96520 -64.30685 4913 ft 231 kts 287°
2026-04-29 00:23 -27.96066 -64.32456 4679 ft 238 kts 295°
2026-04-29 00:23 -27.95330 -64.34119 4480 ft 231 kts 301°
2026-04-29 00:24 -27.94563 -64.35696 4307 ft 225 kts 301°
2026-04-29 00:24 -27.93838 -64.37202 4156 ft 217 kts 301°
2026-04-29 00:24 -27.92956 -64.38554 3877 ft 207 kts 325°
2026-04-29 00:24 -27.91681 -64.39180 3664 ft 196 kts 352°
2026-04-29 00:25 -27.90349 -64.39086 3434 ft 190 kts 17°
2026-04-29 00:25 -27.89166 -64.38493 3216 ft 182 kts 25°
2026-04-29 00:25 -27.88063 -64.37837 2970 ft 176 kts 26°
2026-04-29 00:25 -27.86996 -64.37197 2733 ft 171 kts 25°
2026-04-29 00:26 -27.85949 -64.36571 2501 ft 165 kts 25°
2026-04-29 00:26 -27.84953 -64.35975 2334 ft 159 kts 26°
2026-04-29 00:26 -27.83966 -64.35379 2120 ft 160 kts 25°
2026-04-29 00:26 -27.83004 -64.34807 1924 ft 154 kts 25°
2026-04-29 00:27 -27.82063 -64.34250 1715 ft 152 kts 25°
2026-04-29 00:27 -27.81143 -64.33705 1542 ft 142 kts 25°
2026-04-29 00:27 -27.80282 -64.33196 1319 ft 136 kts 27°
2026-04-29 00:27 -27.79453 -64.32704 1142 ft 135 kts 26°
2026-04-29 00:28 -27.78641 -64.32226 1003 ft 139 kts 30°
2026-04-29 00:28 -27.77758 -64.31700 750 ft 138 kts 28°
2026-04-29 00:28 -27.76942 -64.31214 665 ft 125 kts 27°
2026-04-29 00:28 -27.76296 -64.30835 665 ft 81 kts 28°
2026-04-29 00:29 -27.75926 -64.30615 664 ft 40 kts 32°
2026-04-29 00:29 -27.75754 -64.30396 665 ft 36 kts 64°
2026-04-29 00:29 -27.75688 -64.30159 664 ft 28 kts 73°
2026-04-29 00:29 -27.75647 -64.30009 662 ft 10 kts 61°
2026-04-29 00:30 -27.75601 -64.29979 663 ft 6 kts 39°
2026-04-29 00:30 -27.75594 -64.29960 663 ft 2 kts 96°
2026-04-29 00:30 -27.75611 -64.29949 663 ft 0 kts 143°